Regional Weather Roundup
Issued by NWS San Angelo, TX

Home | Current Version | Previous Version | Text Only | Print | Product List | Glossary On
Versions: 1 2 3 4 5 6 7 8 9 10 11 12 13 14 15 16 17 18 19 20 21 22 23 24 25 26 27 28 29 30 31 32 33 34 35 36 37 38 39 40 41 42 43 44 45 46 47 48 49 50
000
ASUS44 KSJT 280310
RWRSJT
WEST CENTRAL TEXAS REGIONAL WEATHER ROUNDUP
NATIONAL WEATHER SERVICE SAN ANGELO TX
1000 PM CDT WED MAY 27 2015

NOTE: "FAIR" INDICATES FEW OR NO CLOUDS BELOW 12,000 FEET WITH NO
SIGNIFICANT WEATHER AND/OR OBSTRUCTIONS TO VISIBILITY.

TXZ049-054-064>066-071>073-076>078-098-099-113-114-127-128-139-140-
154-155-168>170-280400
...LOCATIONS ACROSS WEST CENTRAL TEXAS...

CITY           SKY/WX    TMP DP  RH WIND       PRES   REMARKS
SAN ANGELO     CLOUDY    76  67  73 E7        30.00R
ABILENE        PTCLDY    76  69  79 S7        30.01R
DYESS AFB      PTCLDY    76  66  71 S6        30.00R
JUNCTION       PTCLDY    77  68  73 SE3       30.02R
SWEETWATER     CLOUDY    76  65  69 SE12      30.05R
BROWNWOOD      PTCLDY    77  72  83 SE12      30.01S
COLEMAN        MOCLDY    76  71  85 S8        30.01S
SONORA         MOCLDY    77  66  69 S10       30.06R
OZONA          FAIR      77  63  61 S12       30.05S
BRADY          CLEAR     73  73 100 SE8       30.03R
$$

TEXAS PANHANDLE/OKLAHOMA PANHANDLE

CITY           SKY/WX    TMP DP  RH WIND       PRES   REMARKS
AMARILLO       PTCLDY    67  51  56 S16       30.02S
BORGER         CLOUDY    73  65  75 SE13G20   29.98S
CANADIAN       CLOUDY    63  60  89 E3        30.05R
DALHART        MOCLDY    69  56  62 SE16G25   30.02R
DUMAS          MOCLDY    66  53  62 SE10      30.01S
GUYMON         NOT AVBL
HEREFORD       PTCLDY    71  64  77 MISG      30.03F
PAMPA          CLOUDY    68  65  91 SE15      30.02F
PERRYTON       CLOUDY    63  56  78 SE15      30.01R
$$

SOUTHERN PANHANDLE/SOUTH PLAINS/ROLLING PLAINS

CITY           SKY/WX    TMP DP  RH WIND       PRES   REMARKS
LUBBOCK        CLOUDY    77  62  59 SE24      29.97F THUNDER
SNYDER         CLOUDY    78  67  68 SE14      30.02R
CHILDRESS      CLOUDY    73  67  81 SE20      29.99R
SEMINOLE       CLOUDY    78  45  30 S7        30.01S
$$

PERMIAN BASIN

CITY           SKY/WX    TMP DP  RH WIND       PRES   REMARKS
MIDLAND        CLOUDY    81  64  56 SE12      30.02R
ODESSA         CLOUDY    81  62  52 E8        30.03R
WINK           MOCLDY    81  64  56 SE15      29.94R
$$

FAR WEST/SOUTHWEST MOUNTAINS/TRANS PECOS

CITY           SKY/WX    TMP DP  RH WIND       PRES   REMARKS
ALPINE         CLEAR     73  60  62 SE16G23   30.08R
DRYDEN           N/A     81  67  62 E15G23    29.96S
EL PASO        MOCLDY    85  20   9 NW5       29.94R
FORT STOCKTON  TSTM      67  62  84 E22       30.01F
GUADALUPE PASS PTCLDY    69  56  62 NE28G36   30.10R
MARFA          CLEAR     72  55  56 SE15      30.06R
PECOS          CLOUDY    78  65  63 E21G30    29.96R
$$

DALLAS/FORT WORTH METROPLEX

CITY           SKY/WX    TMP DP  RH WIND       PRES   REMARKS
DFW AIRPORT    CLOUDY    73  71  93 SE6       30.01F THUNDER
FTW MEACHAM    CLOUDY    71  66  84 SE3       30.01F
DAL-EXECUTIVE  CLOUDY    74  68  81 SE8       30.02F
GRAND PRAIRIE  CLOUDY    74  71  90 SE5       30.03F
ADDISON        PTCLDY    79  66  65 SW3G12    30.05S
MESQUITE       CLOUDY    76  72  87 S9        30.04R
LANCASTER      CLOUDY    73  68  84 CALM      30.05F
$$

NORTH CENTRAL TEXAS

CITY           SKY/WX    TMP DP  RH WIND       PRES   REMARKS
SHRMAN/DENISON MOCLDY    75  70  85 S6        30.05R
GAINESVILLE    MOCLDY    71  62  74 SE7       30.06R
BRIDGEPORT     PTCLDY    69  65  88 SE8       30.06R
DENTON         MOCLDY    70  69  97 CALM      30.00S
WAXAHACHIE     CLOUDY    71  71 100 SE3       30.06S
GRANBURY       CLOUDY    77  73  86 E7        30.05R THUNDER
$$

WESTERN NORTH TEXAS

CITY           SKY/WX    TMP DP  RH WIND       PRES   REMARKS
WICHITA FALLS  MOCLDY    73  70  90 SE7       30.00R
VERNON         CLOUDY    76  66  71 SE10      30.00R
BRECKENRIDGE   MOCLDY    76  67  74 SE9       30.02R
COMANCHE       PTCLDY    75  74  95 SE7       30.04R
$$

CENTRAL AND SOUTH CENTRAL TEXAS

CITY           SKY/WX    TMP DP  RH WIND       PRES   REMARKS
AUSTIN/BERGSTM MOCLDY    77  72  84 SE7       30.02R
WACO           PTCLDY    79  70  74 SE12      30.03R
HILLSBORO      MOCLDY   N/A N/A N/A E8        30.04R
TEMPLE         PTCLDY    77  70  78 E9        30.03R
KILLEEN-GRAY   MOCLDY    76  73  89 SE13      30.02R
FORT HOOD      MOCLDY    76  73  88 E10       30.03R
GEORGETOWN     NOT AVBL
LAGO VISTA     FAIR      77  72  84 SE5       30.06R
SAN MARCOS     NOT AVBL
NEW BRAUNFELS  MOCLDY    78  73  84 S15       30.01R
RANDOLPH AFB   MOCLDY    77  73  88 SE13      30.02R
SAN ANTONIO    MOCLDY    79  72  79 SE15      30.02R
STINSON        CLOUDY    79  73  82 SE12      29.99R
PLEASANTON     NOT AVBL
LA GRANGE      MOCLDY    78  74  87 SE6       30.02R
GIDDINGS       MOCLDY    77  71  82 SE5       30.07R
$$

EAST TEXAS

CITY           SKY/WX    TMP DP  RH WIND       PRES   REMARKS
PARIS          CLOUDY    75  64  69 E8        30.05R
CLARKSVILLE    NOT AVBL
TYLER          CLOUDY    77  70  79 SE5       30.05R
LONGVIEW       MOCLDY    77  74  90 CALM      30.05R
PALESTINE      CLOUDY    77  73  86 CALM      30.06R
NACOGDOCHES    CLOUDY    75  73  94 SE6       30.06S
$$

TEXAS HILL COUNTRY AND EDWARDS PLATEAU

CITY           SKY/WX    TMP DP  RH WIND       PRES   REMARKS
LLANO          MOCLDY    77  73  88 SE8       30.05R
HORSESHOE BAY  FAIR      77  72  83 SE5       30.04R
KERRVILLE      MOCLDY    76  71  84 SE7       30.04R
FREDERICKSBRG  PTCLDY    75  68  77 SE5       30.05R
ROCKSPRINGS    CLOUDY    75  68  78 SE13      30.06S
HONDO          CLOUDY    79  72  79 SE10      30.01R
UVALDE         DRIZZLE   78  73  82 E8        29.99R
DEL RIO        CLOUDY    82  69  64 E9        29.94R
$$

SOUTHEAST TEXAS

CITY           SKY/WX    TMP DP  RH WIND       PRES   REMARKS
COLLEGE STN    CLOUDY    79  72  79 S9        30.05R
CALDWELL       CLOUDY    75  73  94 SE7       30.07R
CROCKETT       NOT AVBL
BRENHAM        MOCLDY    79  73  83 SE5       30.05R
HUNTSVILLE     MOCLDY    80  71  74 CALM      30.07R
CONROE         MOCLDY    76  69  79 SE6       30.07R
HOUSTON BUSH   PTCLDY    77  70  79 S7        30.06R
HOUSTON HOBBY  PTCLDY    77  72  84 SE6       30.06R
PERLAND        PTCLDY    77  72  84 E6        30.07R
WHARTON        PTCLDY    74  71  92 SE5       30.05S
$$

THE UPPER TEXAS COAST

CITY           SKY/WX    TMP DP  RH WIND       PRES   REMARKS
ORANGE         CLEAR     75  72  90 CALM      30.09S
PORT ARTHUR    PTCLDY    74  72  93 S5        30.07R
GALVESTON      CLEAR     78  74  87 SE8       30.08R
ANGLETON       PTCLDY    73  72  96 SE5       30.05S
BAY CITY       CLEAR     75  74  95 SE5       30.05R
$$

TEXAS COASTAL BEND, RIO GRANDE PLAINS DEEP SOUTH TEXAS

CITY           SKY/WX    TMP DP  RH WIND       PRES   REMARKS
VICTORIA       CLOUDY    77  74  90 SE8       30.03S
BEEVILLE       FAIR      77  77 100 SE7       30.01R
ROCKPORT       MOCLDY    81  75  82 SE15      30.01R
PORT ARANSAS   CLOUDY    80  76  88 SE10      30.01R
PORT LAVACA    MOCLDY    78  74  89 SE9       30.03S
CORPUS CHRISTI MOCLDY    80  76  87 SE10      30.00S
KINGSVILLE NAS MOCLDY    80  78  94 E8        29.99S
COTULLA        MOCLDY    82  71  69 SE13      29.97R
LAREDO         MOCLDY    82  74  77 SE13      29.97R
BROWNSVILLE    CLOUDY    81  78  91 E9        29.98S
PORT ISABEL    CLOUDY    82  77  84 SE12      29.98S
HEBBRONVILLE     N/A     78  73  83 E12       29.99F
MCALLEN        MOCLDY    84  76  76 E10       29.98R
WESLACO        MOCLDY    81  75  82 E7        29.97S
FALFURRIAS     MOCLDY    79  75  87 E7        29.98S
EDINBURG       MOCLDY    81  76  83 E6        29.98S
$$


USA.gov is the U.S. government's official web portal to all federal, state and local government web resources and services.